User: anonymous   Login
Location: Banios
(43.0451°N, 0.2335°E)
Time: 01:45:08
(UTC+00:00)
Language:

Cosmos 1655 Rocket - Orbit

View from above orbital plane
View from above orbital plane
View from above satellite
View from above satellite

Ground track
Ground track

The orbit data is extracted from the following two-line orbital elements,

1 15752U 85041B   21107.44600862  .00000013  00000-0 -25837-5 0  9994
2 15752  82.9521 353.6410 0023760 193.2261 166.8274 13.73124266797779
Epoch (UTC): 17 April 2021 10:42:15
Eccentricity: 0.0023760
inclination: 82.9521°
perigee height: 971 km
apogee height: 1006 km
right ascension of ascending node: 353.6410°
argument of perigee: 193.2261°
revolutions per day: 13.73124266
mean anomaly at epoch: 166.8274°
orbit number at epoch: 79777

The dashed part of the orbit path shows where the satellite is in the earth's shadow,  

DLR